Year,Month,Day,Hour,Minute,Value (Times are PST for temperature in C)
2013,07,14,00,00,14.80
2013,07,14,00,01,14.80
2013,07,14,00,02,14.80
2013,07,14,00,03,14.80
2013,07,14,00,04,14.80
2013,07,14,00,05,14.70
2013,07,14,00,06,14.70
2013,07,14,00,07,14.70
2013,07,14,00,08,14.70
2013,07,14,00,09,14.70
2013,07,14,00,10,14.70
2013,07,14,00,11,14.70
2013,07,14,00,12,14.60
2013,07,14,00,13,14.60
2013,07,14,00,14,14.60
2013,07,14,00,15,14.60
2013,07,14,00,16,14.60
2013,07,14,00,17,14.60
2013,07,14,00,18,14.60
2013,07,14,00,19,14.60
2013,07,14,00,20,14.60
2013,07,14,00,21,14.60
2013,07,14,00,22,14.60
2013,07,14,00,23,14.60
2013,07,14,00,24,14.60
2013,07,14,00,25,14.60
2013,07,14,00,26,14.50
2013,07,14,00,27,14.50
2013,07,14,00,28,14.50
2013,07,14,00,29,14.40
2013,07,14,00,30,14.40
2013,07,14,00,31,14.40
2013,07,14,00,32,14.40
2013,07,14,00,33,14.40
2013,07,14,00,34,14.40
2013,07,14,00,35,14.30
2013,07,14,00,36,14.30
2013,07,14,00,37,14.30
2013,07,14,00,38,14.30
2013,07,14,00,39,14.30
2013,07,14,00,40,14.30
2013,07,14,00,41,14.30
2013,07,14,00,42,14.30
2013,07,14,00,43,14.30
2013,07,14,00,44,14.30
2013,07,14,00,45,14.30
2013,07,14,00,46,14.30
2013,07,14,00,47,14.30
2013,07,14,00,48,14.20
2013,07,14,00,49,14.20
2013,07,14,00,50,14.20
2013,07,14,00,51,14.20
2013,07,14,00,52,14.20
2013,07,14,00,53,14.20
2013,07,14,00,54,14.20
2013,07,14,00,55,14.20
2013,07,14,00,56,14.20
2013,07,14,00,57,14.20
2013,07,14,00,58,14.20
2013,07,14,00,59,14.20
2013,07,14,01,00,14.20
2013,07,14,01,01,14.30
2013,07,14,01,02,14.30
2013,07,14,01,03,14.30
2013,07,14,01,04,14.30
2013,07,14,01,05,14.30
2013,07,14,01,06,14.30
2013,07,14,01,07,14.30
2013,07,14,01,08,14.30
2013,07,14,01,09,14.30
2013,07,14,01,10,14.30
2013,07,14,01,11,14.30
2013,07,14,01,12,14.30
2013,07,14,01,13,14.30
2013,07,14,01,14,14.30
2013,07,14,01,15,14.30
2013,07,14,01,16,14.30
2013,07,14,01,17,14.30
2013,07,14,01,18,14.30
2013,07,14,01,19,14.30
2013,07,14,01,20,14.30
2013,07,14,01,21,14.20
2013,07,14,01,22,14.20
2013,07,14,01,23,14.20
2013,07,14,01,24,14.20
2013,07,14,01,25,14.20
2013,07,14,01,26,14.10
2013,07,14,01,27,14.10
2013,07,14,01,28,14.00
2013,07,14,01,29,14.00
2013,07,14,01,30,13.90
2013,07,14,01,31,13.80
2013,07,14,01,32,13.80
2013,07,14,01,33,13.80
2013,07,14,01,34,13.70
2013,07,14,01,35,13.70
2013,07,14,01,36,13.70
2013,07,14,01,37,13.60
2013,07,14,01,38,13.60
2013,07,14,01,39,13.60
2013,07,14,01,40,13.50
2013,07,14,01,41,13.50
2013,07,14,01,42,13.50
2013,07,14,01,43,13.40
2013,07,14,01,44,13.40
2013,07,14,01,45,13.40
2013,07,14,01,46,13.40
2013,07,14,01,47,13.40
2013,07,14,01,48,13.40
2013,07,14,01,49,13.30
2013,07,14,01,50,13.30
2013,07,14,01,51,13.30
2013,07,14,01,52,13.30
2013,07,14,01,53,13.30
2013,07,14,01,54,13.30
2013,07,14,01,55,13.30
2013,07,14,01,56,13.30
2013,07,14,01,57,13.30
2013,07,14,01,58,13.30
2013,07,14,01,59,13.30
2013,07,14,02,00,13.20
2013,07,14,02,01,13.20
2013,07,14,02,02,13.20
2013,07,14,02,03,13.20
2013,07,14,02,04,13.20
2013,07,14,02,05,13.20
2013,07,14,02,06,13.20
2013,07,14,02,07,13.20
2013,07,14,02,08,13.20
2013,07,14,02,09,13.10
2013,07,14,02,10,13.10
2013,07,14,02,11,13.10
2013,07,14,02,12,13.20
2013,07,14,02,13,13.20
2013,07,14,02,14,13.20
2013,07,14,02,15,13.20
2013,07,14,02,16,13.20
2013,07,14,02,17,13.20
2013,07,14,02,18,13.20
2013,07,14,02,19,13.20
2013,07,14,02,20,13.20
2013,07,14,02,21,13.20
2013,07,14,02,22,13.20
2013,07,14,02,23,13.20
2013,07,14,02,24,13.10
2013,07,14,02,25,13.10
2013,07,14,02,26,13.10
2013,07,14,02,27,13.10
2013,07,14,02,28,13.10
2013,07,14,02,29,13.10
2013,07,14,02,30,13.10
2013,07,14,02,31,13.10
2013,07,14,02,32,13.10
2013,07,14,02,33,13.10
2013,07,14,02,34,13.00
2013,07,14,02,35,13.00
2013,07,14,02,36,13.00
2013,07,14,02,37,13.00
2013,07,14,02,38,13.00
2013,07,14,02,39,13.00
2013,07,14,02,40,13.00
2013,07,14,02,41,13.00
2013,07,14,02,42,12.90
2013,07,14,02,43,12.90
2013,07,14,02,44,12.90
2013,07,14,02,45,12.90
2013,07,14,02,46,12.90
2013,07,14,02,47,12.90
2013,07,14,02,48,12.90
2013,07,14,02,49,12.90
2013,07,14,02,50,12.90
2013,07,14,02,51,12.90
2013,07,14,02,52,12.90
2013,07,14,02,53,12.90
2013,07,14,02,54,12.90
2013,07,14,02,55,12.90
2013,07,14,02,56,12.90
2013,07,14,02,57,12.90
2013,07,14,02,58,12.90
2013,07,14,02,59,12.90
2013,07,14,03,00,12.90
2013,07,14,03,01,12.90
2013,07,14,03,02,12.90
2013,07,14,03,03,12.90
2013,07,14,03,04,12.90
2013,07,14,03,05,12.90
2013,07,14,03,06,12.90
2013,07,14,03,07,12.90
2013,07,14,03,08,12.90
2013,07,14,03,09,12.90
2013,07,14,03,10,12.90
2013,07,14,03,11,12.90
2013,07,14,03,12,12.90
2013,07,14,03,13,13.00
2013,07,14,03,14,13.00
2013,07,14,03,15,13.10
2013,07,14,03,16,13.10
2013,07,14,03,17,13.10
2013,07,14,03,18,13.20
2013,07,14,03,19,13.20
2013,07,14,03,20,13.20
2013,07,14,03,21,13.20
2013,07,14,03,22,13.30
2013,07,14,03,23,13.30
2013,07,14,03,24,13.30
2013,07,14,03,25,13.30
2013,07,14,03,26,13.30
2013,07,14,03,27,13.30
2013,07,14,03,28,13.30
2013,07,14,03,29,13.30
2013,07,14,03,30,13.20
2013,07,14,03,31,13.20
2013,07,14,03,32,13.20
2013,07,14,03,33,13.20
2013,07,14,03,34,13.20
2013,07,14,03,35,13.20
2013,07,14,03,36,13.10
2013,07,14,03,37,13.10
2013,07,14,03,38,13.10
2013,07,14,03,39,13.10
2013,07,14,03,40,13.10
2013,07,14,03,41,13.10
2013,07,14,03,42,13.10
2013,07,14,03,43,13.10
2013,07,14,03,44,13.10
2013,07,14,03,45,13.10
2013,07,14,03,46,13.10
2013,07,14,03,47,13.10
2013,07,14,03,48,13.10
2013,07,14,03,49,13.10
2013,07,14,03,50,13.10
2013,07,14,03,51,13.10
2013,07,14,03,52,13.10
2013,07,14,03,53,13.10
2013,07,14,03,54,13.10
2013,07,14,03,55,13.10
2013,07,14,03,56,13.10
2013,07,14,03,57,13.00
2013,07,14,03,58,13.00
2013,07,14,03,59,13.00
2013,07,14,04,00,13.00
2013,07,14,04,01,12.90
2013,07,14,04,02,12.90
2013,07,14,04,03,12.90
2013,07,14,04,04,12.90
2013,07,14,04,05,12.90
2013,07,14,04,06,12.90
2013,07,14,04,07,12.90
2013,07,14,04,08,12.90
2013,07,14,04,09,12.90
2013,07,14,04,10,12.90
2013,07,14,04,11,12.90
2013,07,14,04,12,12.90
2013,07,14,04,13,12.90
2013,07,14,04,14,12.90
2013,07,14,04,15,12.90
2013,07,14,04,16,12.80
2013,07,14,04,17,12.80
2013,07,14,04,18,12.80
2013,07,14,04,19,12.80
2013,07,14,04,20,12.80
2013,07,14,04,21,12.80
2013,07,14,04,22,12.70
2013,07,14,04,23,12.70
2013,07,14,04,24,12.70
2013,07,14,04,25,12.70
2013,07,14,04,26,12.70
2013,07,14,04,27,12.60
2013,07,14,04,28,12.60
2013,07,14,04,29,12.60
2013,07,14,04,30,12.50
2013,07,14,04,31,12.50
2013,07,14,04,32,12.40
2013,07,14,04,33,12.40
2013,07,14,04,34,12.40
2013,07,14,04,35,12.40
2013,07,14,04,36,12.30
2013,07,14,04,37,12.30
2013,07,14,04,38,12.30
2013,07,14,04,39,12.30
2013,07,14,04,40,12.30
2013,07,14,04,41,12.30
2013,07,14,04,42,12.30
2013,07,14,04,43,12.30
2013,07,14,04,44,12.30
2013,07,14,04,45,12.30
2013,07,14,04,46,12.30
2013,07,14,04,47,12.30
2013,07,14,04,48,12.30
2013,07,14,04,49,12.30
2013,07,14,04,50,12.30
2013,07,14,04,51,12.30
2013,07,14,04,52,12.30
2013,07,14,04,53,12.20
2013,07,14,04,54,12.20
2013,07,14,04,55,12.20
2013,07,14,04,56,12.20
2013,07,14,04,57,12.20
2013,07,14,04,58,12.20
2013,07,14,04,59,12.20
2013,07,14,05,00,12.20
2013,07,14,05,01,12.20
2013,07,14,05,02,12.20
2013,07,14,05,03,12.20
2013,07,14,05,04,12.20
2013,07,14,05,05,12.20
2013,07,14,05,06,12.20
2013,07,14,05,07,12.20
2013,07,14,05,08,12.20
2013,07,14,05,09,12.20
2013,07,14,05,10,12.30
2013,07,14,05,11,12.30
2013,07,14,05,12,12.30
2013,07,14,05,13,12.30
2013,07,14,05,14,12.30
2013,07,14,05,15,12.20
2013,07,14,05,16,12.20
2013,07,14,05,17,12.20
2013,07,14,05,18,12.20
2013,07,14,05,19,12.20
2013,07,14,05,20,12.30
2013,07,14,05,21,12.30
2013,07,14,05,22,12.30
2013,07,14,05,23,12.30
2013,07,14,05,24,12.30
2013,07,14,05,25,12.30
2013,07,14,05,26,12.30
2013,07,14,05,27,12.30
2013,07,14,05,28,12.30
2013,07,14,05,29,12.30
2013,07,14,05,30,12.30
2013,07,14,05,31,12.30
2013,07,14,05,32,12.30
2013,07,14,05,33,12.30
2013,07,14,05,34,12.30
2013,07,14,05,35,12.30
2013,07,14,05,36,12.30
2013,07,14,05,37,12.30
2013,07,14,05,38,12.30
2013,07,14,05,39,12.30
2013,07,14,05,40,12.30
2013,07,14,05,41,12.30
2013,07,14,05,42,12.30
2013,07,14,05,43,12.30
2013,07,14,05,44,12.30
2013,07,14,05,45,12.30
2013,07,14,05,46,12.30
2013,07,14,05,47,12.30
2013,07,14,05,48,12.30
2013,07,14,05,49,12.30
2013,07,14,05,50,12.30
2013,07,14,05,51,12.30
2013,07,14,05,52,12.30
2013,07,14,05,53,12.40
2013,07,14,05,54,12.40
2013,07,14,05,55,12.40
2013,07,14,05,56,12.40
2013,07,14,05,57,12.40
2013,07,14,05,58,12.50
2013,07,14,05,59,12.50
2013,07,14,06,00,12.60
2013,07,14,06,01,12.60
2013,07,14,06,02,12.70
2013,07,14,06,03,12.70
2013,07,14,06,04,12.70
2013,07,14,06,05,12.80
2013,07,14,06,06,12.80
2013,07,14,06,07,12.80
2013,07,14,06,08,12.80
2013,07,14,06,09,12.80
2013,07,14,06,10,12.80
2013,07,14,06,11,12.80
2013,07,14,06,12,12.80
2013,07,14,06,13,12.80
2013,07,14,06,14,12.90
2013,07,14,06,15,12.90
2013,07,14,06,16,12.90
2013,07,14,06,17,12.90
2013,07,14,06,18,12.90
2013,07,14,06,19,12.90
2013,07,14,06,20,13.00
2013,07,14,06,21,13.00
2013,07,14,06,22,13.00
2013,07,14,06,23,13.00
2013,07,14,06,24,13.10
2013,07,14,06,25,13.10
2013,07,14,06,26,13.10
2013,07,14,06,27,13.10
2013,07,14,06,28,13.10
2013,07,14,06,29,13.20
2013,07,14,06,30,13.20
2013,07,14,06,31,13.20
2013,07,14,06,32,13.30
2013,07,14,06,33,13.30
2013,07,14,06,34,13.30
2013,07,14,06,35,13.30
2013,07,14,06,36,13.40
2013,07,14,06,37,13.40
2013,07,14,06,38,13.40
2013,07,14,06,39,13.50
2013,07,14,06,40,13.50
2013,07,14,06,41,13.60
2013,07,14,06,42,13.60
2013,07,14,06,43,13.70
2013,07,14,06,44,13.70
2013,07,14,06,45,13.80
2013,07,14,06,46,13.80
2013,07,14,06,47,13.80
2013,07,14,06,48,13.80
2013,07,14,06,49,13.90
2013,07,14,06,50,13.90
2013,07,14,06,51,14.00
2013,07,14,06,52,14.00
2013,07,14,06,53,14.00
2013,07,14,06,54,14.10
2013,07,14,06,55,14.10
2013,07,14,06,56,14.20
2013,07,14,06,57,14.20
2013,07,14,06,58,14.30
2013,07,14,06,59,14.30
2013,07,14,07,00,14.40
2013,07,14,07,01,14.40
2013,07,14,07,02,14.50
2013,07,14,07,03,14.60
2013,07,14,07,04,14.70
2013,07,14,07,05,14.80
2013,07,14,07,06,14.90
2013,07,14,07,07,15.00
2013,07,14,07,08,15.10
2013,07,14,07,09,15.20
2013,07,14,07,10,15.30
2013,07,14,07,11,15.40
2013,07,14,07,12,15.50
2013,07,14,07,13,15.60
2013,07,14,07,14,15.70
2013,07,14,07,15,15.70
2013,07,14,07,16,15.80
2013,07,14,07,17,15.80
2013,07,14,07,18,15.90
2013,07,14,07,19,15.90
2013,07,14,07,20,16.00
2013,07,14,07,21,16.00
2013,07,14,07,22,16.10
2013,07,14,07,23,16.10
2013,07,14,07,24,16.20
2013,07,14,07,25,16.30
2013,07,14,07,26,16.40
2013,07,14,07,27,16.50
2013,07,14,07,28,16.50
2013,07,14,07,29,16.60
2013,07,14,07,30,16.60
2013,07,14,07,31,16.70
2013,07,14,07,32,16.70
2013,07,14,07,33,16.70
2013,07,14,07,34,16.70
2013,07,14,07,35,16.70
2013,07,14,07,36,16.60
2013,07,14,07,37,16.70
2013,07,14,07,38,16.70
2013,07,14,07,39,16.70
2013,07,14,07,40,16.70
2013,07,14,07,41,16.70
2013,07,14,07,42,16.60
2013,07,14,07,43,16.60
2013,07,14,07,44,16.50
2013,07,14,07,45,16.40
2013,07,14,07,46,16.40
2013,07,14,07,47,16.30
2013,07,14,07,48,16.20
2013,07,14,07,49,16.10
2013,07,14,07,50,16.00
2013,07,14,07,51,16.00
2013,07,14,07,52,15.90
2013,07,14,07,53,15.90
2013,07,14,07,54,15.80
2013,07,14,07,55,15.80
2013,07,14,07,56,15.80
2013,07,14,07,57,15.70
2013,07,14,07,58,15.70
2013,07,14,07,59,15.60
2013,07,14,08,00,15.60
2013,07,14,08,01,15.50
2013,07,14,08,02,15.50
2013,07,14,08,03,15.50
2013,07,14,08,04,15.40
2013,07,14,08,05,15.40
2013,07,14,08,06,15.40
2013,07,14,08,07,15.30
2013,07,14,08,08,15.30
2013,07,14,08,09,15.30
2013,07,14,08,10,15.30
2013,07,14,08,11,15.30
2013,07,14,08,12,15.30
2013,07,14,08,13,15.30
2013,07,14,08,14,15.30
2013,07,14,08,15,15.30
2013,07,14,08,16,15.30
2013,07,14,08,17,15.30
2013,07,14,08,18,15.40
2013,07,14,08,19,15.40
2013,07,14,08,20,15.40
2013,07,14,08,21,15.50
2013,07,14,08,22,15.50
2013,07,14,08,23,15.60
2013,07,14,08,24,15.60
2013,07,14,08,25,15.60
2013,07,14,08,26,15.60
2013,07,14,08,27,15.70
2013,07,14,08,28,15.70
2013,07,14,08,29,15.80
2013,07,14,08,30,15.90
2013,07,14,08,31,15.90
2013,07,14,08,32,16.00
2013,07,14,08,33,16.00
2013,07,14,08,34,16.10
2013,07,14,08,35,16.20
2013,07,14,08,36,16.20
2013,07,14,08,37,16.30
2013,07,14,08,38,16.30
2013,07,14,08,39,16.30
2013,07,14,08,40,16.40
2013,07,14,08,41,16.40
2013,07,14,08,42,16.40
2013,07,14,08,43,16.50
2013,07,14,08,44,16.50
2013,07,14,08,45,16.50
2013,07,14,08,46,16.50
2013,07,14,08,47,16.50
2013,07,14,08,48,16.40
2013,07,14,08,49,16.30
2013,07,14,08,50,16.20
2013,07,14,08,51,16.10
2013,07,14,08,52,16.10
2013,07,14,08,53,16.00
2013,07,14,08,54,15.80
2013,07,14,08,55,15.70
2013,07,14,08,56,15.70
2013,07,14,08,57,15.60
2013,07,14,08,58,15.60
2013,07,14,08,59,15.50
2013,07,14,09,00,15.50
2013,07,14,09,01,15.40
2013,07,14,09,02,15.40
2013,07,14,09,03,15.40
2013,07,14,09,04,15.30
2013,07,14,09,05,15.10
2013,07,14,09,06,15.00
2013,07,14,09,07,15.00
2013,07,14,09,08,14.90
2013,07,14,09,09,14.90
2013,07,14,09,10,14.90
2013,07,14,09,11,14.80
2013,07,14,09,12,14.80
2013,07,14,09,13,14.90
2013,07,14,09,14,15.00
2013,07,14,09,15,15.10
2013,07,14,09,16,15.10
2013,07,14,09,17,15.20
2013,07,14,09,18,15.30
2013,07,14,09,19,15.40
2013,07,14,09,20,15.40
2013,07,14,09,21,15.50
2013,07,14,09,22,15.50
2013,07,14,09,23,15.60
2013,07,14,09,24,15.60
2013,07,14,09,25,15.70
2013,07,14,09,26,15.80
2013,07,14,09,27,15.80
2013,07,14,09,28,15.90
2013,07,14,09,29,15.90
2013,07,14,09,30,15.90
2013,07,14,09,31,16.00
2013,07,14,09,32,16.00
2013,07,14,09,33,16.10
2013,07,14,09,34,16.10
2013,07,14,09,35,16.10
2013,07,14,09,36,16.10
2013,07,14,09,37,16.10
2013,07,14,09,38,16.10
2013,07,14,09,39,16.10
2013,07,14,09,40,16.10
2013,07,14,09,41,16.10
2013,07,14,09,42,16.10
2013,07,14,09,43,16.00
2013,07,14,09,44,16.00
2013,07,14,09,45,16.00
2013,07,14,09,46,16.00
2013,07,14,09,47,16.00
2013,07,14,09,48,16.00
2013,07,14,09,49,16.00
2013,07,14,09,50,16.00
2013,07,14,09,51,16.00
2013,07,14,09,52,16.00
2013,07,14,09,53,16.10
2013,07,14,09,54,16.10
2013,07,14,09,55,16.10
2013,07,14,09,56,16.10
2013,07,14,09,57,16.20
2013,07,14,09,58,16.20
2013,07,14,09,59,16.20
2013,07,14,10,00,16.30
2013,07,14,10,01,16.30
2013,07,14,10,02,16.40
2013,07,14,10,03,16.50
2013,07,14,10,04,16.50
2013,07,14,10,05,16.60
2013,07,14,10,06,16.70
2013,07,14,10,07,16.70
2013,07,14,10,08,16.70
2013,07,14,10,09,16.70
2013,07,14,10,10,16.70
2013,07,14,10,11,16.60
2013,07,14,10,12,16.60
2013,07,14,10,13,16.70
2013,07,14,10,14,16.70
2013,07,14,10,15,16.70
2013,07,14,10,16,16.80
2013,07,14,10,17,16.80
2013,07,14,10,18,16.90
2013,07,14,10,19,16.90
2013,07,14,10,20,17.00
2013,07,14,10,21,17.00
2013,07,14,10,22,17.10
2013,07,14,10,23,17.10
2013,07,14,10,24,17.10
2013,07,14,10,25,17.10
2013,07,14,10,26,17.10
2013,07,14,10,27,17.20
2013,07,14,10,28,17.20
2013,07,14,10,29,17.30
2013,07,14,10,30,17.30
2013,07,14,10,31,17.30
2013,07,14,10,32,17.40
2013,07,14,10,33,17.40
2013,07,14,10,34,17.50
2013,07,14,10,35,17.60
2013,07,14,10,36,17.60
2013,07,14,10,37,17.70
2013,07,14,10,38,17.80
2013,07,14,10,39,17.80
2013,07,14,10,40,17.90
2013,07,14,10,41,17.90
2013,07,14,10,42,18.00
2013,07,14,10,43,18.10
2013,07,14,10,44,18.20
2013,07,14,10,45,18.20
2013,07,14,10,46,18.20
2013,07,14,10,47,18.20
2013,07,14,10,48,18.20
2013,07,14,10,49,18.10
2013,07,14,10,50,18.00
2013,07,14,10,51,17.80
2013,07,14,10,52,17.80
2013,07,14,10,53,17.70
2013,07,14,10,54,17.70
2013,07,14,10,55,17.60
2013,07,14,10,56,17.50
2013,07,14,10,57,17.50
2013,07,14,10,58,17.40
2013,07,14,10,59,17.30
2013,07,14,11,00,17.30
2013,07,14,11,01,17.30
2013,07,14,11,02,17.30
2013,07,14,11,03,17.40
2013,07,14,11,04,17.30
2013,07,14,11,05,17.20
2013,07,14,11,06,17.10
2013,07,14,11,07,17.00
2013,07,14,11,08,16.90
2013,07,14,11,09,16.80
2013,07,14,11,10,16.80
2013,07,14,11,11,16.80
2013,07,14,11,12,16.80
2013,07,14,11,13,16.80
2013,07,14,11,14,16.80
2013,07,14,11,15,16.90
2013,07,14,11,16,17.00
2013,07,14,11,17,17.10
2013,07,14,11,18,17.20
2013,07,14,11,19,17.20
2013,07,14,11,20,17.30
2013,07,14,11,21,17.30
2013,07,14,11,22,17.30
2013,07,14,11,23,17.40
2013,07,14,11,24,17.50
2013,07,14,11,25,17.50
2013,07,14,11,26,17.70
2013,07,14,11,27,17.70
2013,07,14,11,28,17.80
2013,07,14,11,29,17.80
2013,07,14,11,30,17.80
2013,07,14,11,31,17.80
2013,07,14,11,32,17.80
2013,07,14,11,33,17.80
2013,07,14,11,34,17.70
2013,07,14,11,35,17.70
2013,07,14,11,36,17.60
2013,07,14,11,37,17.40
2013,07,14,11,38,17.30
2013,07,14,11,39,17.30
2013,07,14,11,40,17.30
2013,07,14,11,41,17.40
2013,07,14,11,42,17.50
2013,07,14,11,43,17.60
2013,07,14,11,44,17.60
2013,07,14,11,45,17.70
2013,07,14,11,46,17.80
2013,07,14,11,47,17.80
2013,07,14,11,48,17.80
2013,07,14,11,49,17.90
2013,07,14,11,50,17.90
2013,07,14,11,51,18.10
2013,07,14,11,52,18.20
2013,07,14,11,53,18.20
2013,07,14,11,54,18.20
2013,07,14,11,55,18.20
2013,07,14,11,56,18.20
2013,07,14,11,57,18.10
2013,07,14,11,58,18.10
2013,07,14,11,59,18.00
2013,07,14,12,00,17.90
2013,07,14,12,01,17.90
2013,07,14,12,02,17.90
2013,07,14,12,03,17.80
2013,07,14,12,04,17.70
2013,07,14,12,05,17.60
2013,07,14,12,06,17.50
2013,07,14,12,07,17.60
2013,07,14,12,08,17.60
2013,07,14,12,09,17.80
2013,07,14,12,10,17.90
2013,07,14,12,11,17.90
2013,07,14,12,12,17.90
2013,07,14,12,13,17.90
2013,07,14,12,14,18.00
2013,07,14,12,15,18.10
2013,07,14,12,16,18.20
2013,07,14,12,17,18.20
2013,07,14,12,18,18.20
2013,07,14,12,19,18.20
2013,07,14,12,20,18.30
2013,07,14,12,21,18.30
2013,07,14,12,22,18.40
2013,07,14,12,23,18.40
2013,07,14,12,24,18.50
2013,07,14,12,25,18.60
2013,07,14,12,26,18.70
2013,07,14,12,27,18.60
2013,07,14,12,28,18.50
2013,07,14,12,29,18.40
2013,07,14,12,30,18.40
2013,07,14,12,31,18.40
2013,07,14,12,32,18.40
2013,07,14,12,33,18.30
2013,07,14,12,34,18.30
2013,07,14,12,35,18.20
2013,07,14,12,36,18.10
2013,07,14,12,37,18.00
2013,07,14,12,38,18.00
2013,07,14,12,39,17.90
2013,07,14,12,40,17.90
2013,07,14,12,41,17.90
2013,07,14,12,42,17.80
2013,07,14,12,43,17.70
2013,07,14,12,44,17.70
2013,07,14,12,45,17.60
2013,07,14,12,46,17.60
2013,07,14,12,47,17.60
2013,07,14,12,48,17.60
2013,07,14,12,49,17.60
2013,07,14,12,50,17.60
2013,07,14,12,51,17.60
2013,07,14,12,52,17.50
2013,07,14,12,53,17.40
2013,07,14,12,54,17.30
2013,07,14,12,55,17.20
2013,07,14,12,56,17.10
2013,07,14,12,57,17.00
2013,07,14,12,58,16.90
2013,07,14,12,59,16.90
2013,07,14,13,00,16.90
2013,07,14,13,01,16.80
2013,07,14,13,02,16.80
2013,07,14,13,03,16.80
2013,07,14,13,04,16.90
2013,07,14,13,05,16.90
2013,07,14,13,06,16.90
2013,07,14,13,07,16.90
2013,07,14,13,08,16.90
2013,07,14,13,09,16.90
2013,07,14,13,10,16.90
2013,07,14,13,11,17.00
2013,07,14,13,12,17.10
2013,07,14,13,13,17.10
2013,07,14,13,14,17.20
2013,07,14,13,15,17.30
2013,07,14,13,16,17.30
2013,07,14,13,17,17.20
2013,07,14,13,18,17.20
2013,07,14,13,19,17.20
2013,07,14,13,20,17.30
2013,07,14,13,21,17.40
2013,07,14,13,22,17.40
2013,07,14,13,23,17.40
2013,07,14,13,24,17.30
2013,07,14,13,25,17.30
2013,07,14,13,26,17.20
2013,07,14,13,27,17.10
2013,07,14,13,28,17.00
2013,07,14,13,29,17.00
2013,07,14,13,30,17.10
2013,07,14,13,31,17.20
2013,07,14,13,32,17.20
2013,07,14,13,33,17.20
2013,07,14,13,34,17.30
2013,07,14,13,35,17.40
2013,07,14,13,36,17.40
2013,07,14,13,37,17.40
2013,07,14,13,38,17.30
2013,07,14,13,39,17.10
2013,07,14,13,40,16.90
2013,07,14,13,41,16.60
2013,07,14,13,42,16.50
2013,07,14,13,43,16.30
2013,07,14,13,44,16.20
2013,07,14,13,45,16.10
2013,07,14,13,46,16.00
2013,07,14,13,47,15.90
2013,07,14,13,48,15.80
2013,07,14,13,49,15.60
2013,07,14,13,50,15.50
2013,07,14,13,51,15.30
2013,07,14,13,52,15.20
2013,07,14,13,53,15.10
2013,07,14,13,54,14.90
2013,07,14,13,55,14.80
2013,07,14,13,56,14.80
2013,07,14,13,57,14.70
2013,07,14,13,58,14.80
2013,07,14,13,59,14.80
2013,07,14,14,00,14.90
2013,07,14,14,01,14.90
2013,07,14,14,02,14.90
2013,07,14,14,03,15.00
2013,07,14,14,04,15.10
2013,07,14,14,05,15.20
2013,07,14,14,06,15.20
2013,07,14,14,07,15.20
2013,07,14,14,08,15.20
2013,07,14,14,09,15.10
2013,07,14,14,10,15.00
2013,07,14,14,11,14.90
2013,07,14,14,12,14.80
2013,07,14,14,13,14.80
2013,07,14,14,14,14.80
2013,07,14,14,15,14.70
2013,07,14,14,16,14.60
2013,07,14,14,17,14.60
2013,07,14,14,18,14.60
2013,07,14,14,19,14.60
2013,07,14,14,20,14.60
2013,07,14,14,21,14.60
2013,07,14,14,22,14.60
2013,07,14,14,23,14.60
2013,07,14,14,24,14.70
2013,07,14,14,25,14.70
2013,07,14,14,26,14.70
2013,07,14,14,27,14.80
2013,07,14,14,28,14.80
2013,07,14,14,29,14.80
2013,07,14,14,30,14.80
2013,07,14,14,31,14.80
2013,07,14,14,32,14.80
2013,07,14,14,33,14.80
2013,07,14,14,34,14.80
2013,07,14,14,35,14.80
2013,07,14,14,36,14.70
2013,07,14,14,37,14.70
2013,07,14,14,38,14.60
2013,07,14,14,39,14.60
2013,07,14,14,40,14.60
2013,07,14,14,41,14.60
2013,07,14,14,42,14.60
2013,07,14,14,43,14.60
2013,07,14,14,44,14.60
2013,07,14,14,45,14.70
2013,07,14,14,46,14.70
2013,07,14,14,47,14.70
2013,07,14,14,48,14.70
2013,07,14,14,49,14.70
2013,07,14,14,50,14.70
2013,07,14,14,51,14.70
2013,07,14,14,52,14.60
2013,07,14,14,53,14.60
2013,07,14,14,54,14.50
2013,07,14,14,55,14.40
2013,07,14,14,56,14.40
2013,07,14,14,57,14.40
2013,07,14,14,58,14.30
2013,07,14,14,59,14.30
2013,07,14,15,00,14.30
2013,07,14,15,01,14.30
2013,07,14,15,02,14.20
2013,07,14,15,03,14.20
2013,07,14,15,04,14.10
2013,07,14,15,05,14.10
2013,07,14,15,06,14.00
2013,07,14,15,07,14.00
2013,07,14,15,08,14.10
2013,07,14,15,09,14.00
2013,07,14,15,10,14.00
2013,07,14,15,11,14.00
2013,07,14,15,12,14.00
2013,07,14,15,13,14.00
2013,07,14,15,14,14.00
2013,07,14,15,15,13.90
2013,07,14,15,16,13.90
2013,07,14,15,17,14.00
2013,07,14,15,18,14.00
2013,07,14,15,19,14.00
2013,07,14,15,20,14.00
2013,07,14,15,21,13.90
2013,07,14,15,22,13.80
2013,07,14,15,23,13.60
2013,07,14,15,24,13.60
2013,07,14,15,25,13.60
2013,07,14,15,26,13.60
2013,07,14,15,27,13.60
2013,07,14,15,28,13.60
2013,07,14,15,29,13.60
2013,07,14,15,30,13.60
2013,07,14,15,31,13.70
2013,07,14,15,32,13.80
2013,07,14,15,33,14.00
2013,07,14,15,34,14.10
2013,07,14,15,35,14.30
2013,07,14,15,36,14.50
2013,07,14,15,37,14.60
2013,07,14,15,38,14.80
2013,07,14,15,39,15.00
2013,07,14,15,40,15.20
2013,07,14,15,41,15.30
2013,07,14,15,42,15.50
2013,07,14,15,43,15.70
2013,07,14,15,44,15.80
2013,07,14,15,45,15.90
2013,07,14,15,46,16.10
2013,07,14,15,47,16.20
2013,07,14,15,48,16.30
2013,07,14,15,49,16.30
2013,07,14,15,50,16.40
2013,07,14,15,51,16.40
2013,07,14,15,52,16.40
2013,07,14,15,53,16.30
2013,07,14,15,54,16.10
2013,07,14,15,55,16.00
2013,07,14,15,56,15.90
2013,07,14,15,57,15.90
2013,07,14,15,58,15.90
2013,07,14,15,59,16.00
2013,07,14,16,00,16.00
2013,07,14,16,01,16.10
2013,07,14,16,02,16.30
2013,07,14,16,03,16.50
2013,07,14,16,04,16.80
2013,07,14,16,05,17.10
2013,07,14,16,06,17.40
2013,07,14,16,07,17.80
2013,07,14,16,08,18.10
2013,07,14,16,09,18.50
2013,07,14,16,10,18.90
2013,07,14,16,11,19.30
2013,07,14,16,12,19.70
2013,07,14,16,13,20.10
2013,07,14,16,14,20.50
2013,07,14,16,15,20.90
2013,07,14,16,16,21.20
2013,07,14,16,17,21.60
2013,07,14,16,18,21.90
2013,07,14,16,19,22.20
2013,07,14,16,20,22.50
2013,07,14,16,21,22.90
2013,07,14,16,22,23.20
2013,07,14,16,23,23.40
2013,07,14,16,24,23.60
2013,07,14,16,25,23.80
2013,07,14,16,26,23.90
2013,07,14,16,27,24.00
2013,07,14,16,28,24.10
2013,07,14,16,29,24.20
2013,07,14,16,30,24.30
2013,07,14,16,31,24.30
2013,07,14,16,32,24.40
2013,07,14,16,33,24.40
2013,07,14,16,34,24.50
2013,07,14,16,35,24.50
2013,07,14,16,36,24.50
2013,07,14,16,37,24.50
2013,07,14,16,38,24.50
2013,07,14,16,39,24.40
2013,07,14,16,40,24.40
2013,07,14,16,41,24.40
2013,07,14,16,42,24.50
2013,07,14,16,43,24.50
2013,07,14,16,44,24.50
2013,07,14,16,45,24.60
2013,07,14,16,46,24.60
2013,07,14,16,47,24.70
2013,07,14,16,48,24.70
2013,07,14,16,49,24.60
2013,07,14,16,50,24.60
2013,07,14,16,51,24.60
2013,07,14,16,52,24.60
2013,07,14,16,53,24.60
2013,07,14,16,54,24.60
2013,07,14,16,55,24.70
2013,07,14,16,56,24.70
2013,07,14,16,57,24.70
2013,07,14,16,58,24.60
2013,07,14,16,59,24.60
2013,07,14,17,00,24.50
2013,07,14,17,01,24.50
2013,07,14,17,02,24.50
2013,07,14,17,03,24.40
2013,07,14,17,04,24.40
2013,07,14,17,05,24.40
2013,07,14,17,06,24.40
2013,07,14,17,07,24.40
2013,07,14,17,08,24.30
2013,07,14,17,09,24.30
2013,07,14,17,10,24.20
2013,07,14,17,11,24.20
2013,07,14,17,12,24.20
2013,07,14,17,13,24.20
2013,07,14,17,14,24.20
2013,07,14,17,15,24.20
2013,07,14,17,16,24.20
2013,07,14,17,17,24.20
2013,07,14,17,18,24.20
2013,07,14,17,19,24.20